Home   Weather   Kriens   Past weeks

Flag for Switzerland Past Weather in Kriens, Lucerne, Switzerland — Yesterday and Last 2 Weeks

Now
22 °F

Cold.


Feels Like: 22 °F
Forecast: 18 / 35 °F
Wind: 2 mph from West

Location: Giswil

Current Time: Jan 21, 2017 at 2:46:27 pm

Latest Report: Jan 21, 2017 at 1:00 pm


Visibility: N/A

Pressure: 30.49 "Hg

Humidity: 99%

Dew Point: 22 °F

Location of KriensLocation

Past Weather in Kriens — Graph

°F

Kriens Temperature Yesterday

Maximum temperature yesterday: 24 °F (at 3:00 pm)
Minimum temperature yesterday: 22 °F (at 8:00 am)
Average temperature yesterday: 23 °F

High & Low Weather Summary for the Past Weeks

 TemperatureHumidityPressure
High45 °F (Jan 13, 1:00 am)100% (Jan 8, 8:00 am)30.75 "Hg (Jan 8, 8:00 am)
Low4 °F (Jan 7, 2:00 am)49% (Jan 11, 5:00 pm)29.50 "Hg (Jan 13, 1:00 am)
Average27 °F87%30.29 "Hg
* Reported Jan 6 1:00 pm — Jan 21 1:00 pm, Kriens, Weather by CustomWeather, © 2017

Note: Actual official high and low records may vary slightly from our data, if they occured in-between our weather recording intervals... More about our weather records

Advertising

Kriens Weather History for the Previous 24 Hours

Scroll right to see more
 ConditionsComfort  
Time TempWeatherWind HumidityBarometerVisibility
1:00 pm
Sat, Jan 21
22 °FCold.2 mph99%30.49 "HgN/A
12:00 pm21 °FCold.2 mph99%30.50 "HgN/A
11:00 am21 °FCold.3 mph99%30.52 "HgN/A
10:00 am21 °FCold.2 mph99%30.51 "HgN/A
9:00 am20 °FCold.3 mph99%30.52 "HgN/A
8:00 am20 °FCold.3 mph99%30.50 "HgN/A
7:00 am20 °FCold.3 mph99%30.51 "HgN/A
6:00 am21 °FCold.2 mph99%30.50 "HgN/A
5:00 am21 °FCold.1 mph100%30.50 "HgN/A
4:00 am21 °FCold.3 mph99%30.52 "HgN/A
3:00 am21 °FCold.3 mph99%30.52 "HgN/A
2:00 am21 °FCold.3 mph99%30.52 "HgN/A
1:00 am22 °FCold.1 mph100%30.53 "HgN/A
12:00 am22 °FCold.5 mph99%30.53 "HgN/A
11:00 pm
Fri, Jan 20
22 °FCold.5 mph97%30.53 "HgN/A
10:00 pm22 °FCold.3 mph96%30.54 "HgN/A
9:00 pm23 °FCold.1 mph95%30.53 "HgN/A
8:00 pm23 °FCold.3 mph94%30.53 "HgN/A
7:00 pm23 °FCold.3 mph91%30.52 "HgN/A
6:00 pm24 °FCold.2 mph89%30.51 "HgN/A
5:00 pm24 °FCold.2 mph88%30.51 "HgN/A
4:00 pm24 °FCold.3 mph87%30.51 "HgN/A
3:00 pm24 °FCold.2 mph85%30.51 "HgN/A
2:00 pm24 °FCold.2 mph88%30.52 "HgN/A
Weather by CustomWeather, © 2017

See weather overviewHow to use our weather pages